TimeEST,TemperatureF,Dew PointF,Humidity,Sea Level PressureIn,VisibilityMPH,Wind Direction,Wind SpeedMPH,Gust SpeedMPH,PrecipitationIn,Events,Conditions,WindDirDegrees,DateUTC
12:54 AM,28.0,24.1,85,30.11,9.0,Calm,Calm,-,N/A,,Overcast,0,2013-02-23 05:54:00
1:54 AM,28.0,24.1,85,30.09,9.0,SE,5.8,-,N/A,,Overcast,140,2013-02-23 06:54:00
2:46 AM,28.4,24.8,86,30.01,8.0,ESE,3.5,-,N/A,,Overcast,110,2013-02-23 07:46:00
2:54 AM,28.0,25.0,88,30.07,8.0,Variable,3.5,-,N/A,,Overcast,0,2013-02-23 07:54:00
3:54 AM,28.0,25.0,88,30.05,7.0,Calm,Calm,-,N/A,,Overcast,0,2013-02-23 08:54:00
4:54 AM,28.0,25.0,88,30.03,6.0,ESE,5.8,-,N/A,,Overcast,110,2013-02-23 09:54:00
5:54 AM,28.0,26.1,92,30.04,6.0,SE,3.5,-,N/A,,Overcast,130,2013-02-23 10:54:00
7:54 AM,28.9,26.1,89,30.01,5.0,East,5.8,-,N/A,,Overcast,90,2013-02-23 12:54:00
8:54 AM,28.9,27.0,92,30.00,4.0,NNE,4.6,-,N/A,,Overcast,30,2013-02-23 13:54:00
9:54 AM,30.0,27.0,88,29.98,5.0,ENE,4.6,-,N/A,,Overcast,60,2013-02-23 14:54:00
10:54 AM,30.9,28.0,89,29.98,6.0,NE,3.5,-,N/A,,Overcast,50,2013-02-23 15:54:00
11:54 AM,32.0,28.0,85,29.97,6.0,Calm,Calm,-,N/A,,Overcast,0,2013-02-23 16:54:00
12:20 PM,33.8,28.4,81,29.91,6.0,East,3.5,-,N/A,,Overcast,80,2013-02-23 17:20:00
12:54 PM,34.0,28.9,82,29.94,7.0,Calm,Calm,-,N/A,,Overcast,0,2013-02-23 17:54:00
1:54 PM,35.1,30.0,82,29.92,8.0,Calm,Calm,-,N/A,,Overcast,0,2013-02-23 18:54:00
2:33 PM,37.4,30.2,75,29.86,9.0,Calm,Calm,-,N/A,,Overcast,0,2013-02-23 19:33:00
2:54 PM,37.0,30.9,79,29.90,9.0,Calm,Calm,-,N/A,,Overcast,0,2013-02-23 19:54:00
3:07 PM,37.4,30.2,75,29.84,10.0,Calm,Calm,-,N/A,,Overcast,0,2013-02-23 20:07:00
3:54 PM,37.0,30.9,79,29.89,10.0,NNE,4.6,-,N/A,,Overcast,20,2013-02-23 20:54:00
4:54 PM,37.0,30.9,79,29.89,10.0,Calm,Calm,-,N/A,,Overcast,0,2013-02-23 21:54:00
5:54 PM,35.1,30.0,82,29.88,10.0,North,3.5,-,N/A,,Overcast,360,2013-02-23 22:54:00
6:54 PM,35.1,30.0,82,29.90,9.0,Calm,Calm,-,N/A,,Overcast,0,2013-02-23 23:54:00
7:54 PM,34.0,30.9,89,29.89,8.0,NNW,5.8,-,N/A,,Overcast,330,2013-02-24 00:54:00
8:21 PM,33.8,30.2,87,29.84,7.0,Calm,Calm,-,N/A,,Overcast,0,2013-02-24 01:21:00
8:54 PM,33.1,30.9,92,29.88,8.0,Calm,Calm,-,N/A,,Overcast,0,2013-02-24 01:54:00
9:12 PM,33.8,30.2,87,29.83,6.0,NNW,3.5,-,N/A,,Scattered Clouds,340,2013-02-24 02:12:00
9:54 PM,30.9,30.0,96,29.88,4.0,NW,3.5,-,N/A,,Clear,320,2013-02-24 02:54:00
10:25 PM,30.2,28.4,93,29.83,1.8,Calm,Calm,-,N/A,,Partly Cloudy,0,2013-02-24 03:25:00
10:42 PM,28.4,28.4,100,29.83,0.5,Calm,Calm,-,N/A,Fog,Light Freezing Fog,0,2013-02-24 03:42:00
10:54 PM,28.9,28.0,96,29.88,1.8,NNW,3.5,-,N/A,,Overcast,330,2013-02-24 03:54:00
11:01 PM,30.2,28.4,93,29.82,2.5,North,4.6,-,N/A,,Overcast,350,2013-02-24 04:01:00
11:18 PM,28.4,28.4,100,29.82,4.0,Calm,Calm,-,N/A,,Mostly Cloudy,0,2013-02-24 04:18:00
11:54 PM,30.0,28.9,96,29.87,5.0,Calm,Calm,-,N/A,,Mostly Cloudy,0,2013-02-24 04:54:00